星链-5546 (STARLINK-5546 )

导读

STARLINK-5546是美国太空探索技术公司SpaceX星链星座的成员,于2023年2月17日发射升空。星链计划最终将在近地轨道部署超4万颗卫星,旨在为全球提供高速低时延卫星互联网服务,同时具备潜在军事应用价值。该卫星运行在近地轨道,属于星链组网的一部分,助力星座实现全球网络覆盖,目前已在轨道稳定运行超三年,参与提供全球卫星宽带接入服务。

基本信息
目录编号:
55632
目录名称:
STARLINK-5546
国际标识:
2023-021E
轨道中心:
EARTH
卫星名称:
星链-5546
卫星全名:
星链-5546 (STARLINK-5546 )
卫星状态:
在轨 (已飞行1214 天)
发射日期:
2023-02-17 UTC
国别 :
美国 (US)
星等 :
--
轨道信息
数据来源 国际轨道数据 AOE轨道数据
星历时间 2026-06-15T04:43:07+0800
5小时前
查看轨道信息
2026-06-12T07:00:00+0800
3天前
查看轨道信息
半长轴 6950.187km 6950.191km
偏心率 0.0003065 0.0003344
轨道倾角 69.999° 69.997°
近地点辐角 270.526° 278.642°
升交点赤经 319.454° 326.776°
平近点角 89.555° 256.649°
近地点 569.919km 569.729km
远地点 574.181km 574.379km
周期 96.107分钟 96.107分钟
每日圈数 14.983322 14.983307
详细信息
固有亮度:
5
最大亮度:
2.5
卫星平台:
Starlink v1.5
覆盖范围:
全球
运营商:
太空探索技术公司
运营商所在国:
美国
制造商(研发单位):
太空探索技术公司
制造商所在国:
美国
使用方式:
暂无
卫星简介
星链(Starlink)计划是由太空探索技术公司(SpaceX)提出的一个巨型低轨卫星互联网星座项目,计划在2019年至2024年间在太空搭建由约1.2万颗卫星组成的“星链”网络,其中1584颗将部署在地球上空550千米处的近地轨道,并从2020年开始工作。该卫星仍在工作。
2D轨道图
3D轨道图
轨道高度分析图
轨道倾角分析图
轨道综合分析图
查看轨道综合分析图